| time (UTC) | temp F | wind direction | speed knots | gust knots | rain 1hr in | rain 24hr in | rain mn in | humidity % | barometer mb |
| 20260503181549 | 78 | 314 | 2.6 | 7.0 | 0.00 | 0.00 | 0.00 | 43 | 1010.9 |
| 20260503180041 | 75 | 317 | 1.7 | 6.1 | 0.00 | 0.00 | 0.00 | 48 | 1011.0 |
| 20260503174529 | 74 | 315 | 1.7 | 7.0 | 0.00 | 0.00 | 0.00 | 53 | 1011.1 |
| 20260503173029 | 72 | 315 | 1.7 | 4.3 | 0.00 | 0.00 | 0.00 | 58 | 1011.3 |
| 20260503171528 | 69 | 0 | 1.7 | 5.2 | 0.00 | 0.00 | 0.00 | 62 | 1011.4 |
| 20260503081528 | 57 | 0 | 0.0 | 0.9 | 0.00 | 0.00 | 0.00 | 90 | 1012.3 |
| 20260503071528 | 57 | 0 | 0.0 | 0.9 | 0.00 | 0.00 | 0.00 | 90 | 1012.5 |
| 20260503054537 | 60 | 0 | 0.0 | 0.9 | 0.00 | 0.00 | 0.00 | 84 | 1012.4 |
| 20260503053028 | 62 | 0 | 0.0 | 0.9 | 0.00 | 0.00 | 0.00 | 82 | 1012.2 |
| 20260503051530 | 61 | 0 | 0.0 | 1.7 | 0.00 | 0.00 | 0.00 | 82 | 1012.1 |
| 20260503050030 | 61 | 0 | 0.0 | 0.9 | 0.00 | 0.00 | 0.00 | 82 | 1012.1 |
| 20260503044531 | 61 | 0 | 0.0 | 0.0 | 0.00 | 0.00 | 0.00 | 82 | 1012.2 |
| 20260503043028 | 62 | 0 | 0.0 | 0.9 | 0.00 | 0.00 | 0.00 | 81 | 1012.4 |
| 20260503041530 | 62 | 0 | 0.0 | 0.9 | 0.00 | 0.00 | 0.00 | 81 | 1012.4 |
| 20260503040035 | 62 | 0 | 0.0 | 0.0 | 0.00 | 0.00 | 0.00 | 82 | 1012.5 |
| 20260503034528 | 63 | 0 | 0.0 | 0.9 | 0.00 | 0.00 | 0.00 | 81 | 1012.3 |
| 20260503033030 | 63 | 0 | 0.0 | 0.0 | 0.00 | 0.00 | 0.00 | 81 | 1012.3 |
| 20260503031530 | 63 | 0 | 0.0 | 0.9 | 0.00 | 0.00 | 0.00 | 81 | 1012.3 |
| 20260503030034 | 63 | 0 | 0.0 | 0.9 | 0.00 | 0.00 | 0.00 | 78 | 1012.3 |
| 20260503024529 | 64 | 0 | 0.0 | 3.5 | 0.00 | 0.00 | 0.00 | 77 | 1012.4 |
| 20260503023028 | 66 | 0 | 0.0 | 1.7 | 0.00 | 0.00 | 0.00 | 73 | 1012.3 |
| 20260503021528 | 66 | 185 | 0.9 | 5.2 | 0.00 | 0.00 | 0.00 | 71 | 1012.1 |
| 20260503020028 | 67 | 304 | 0.0 | 0.9 | 0.00 | 0.00 | 0.00 | 73 | 1011.8 |
| 20260503014531 | 68 | 0 | 0.0 | 0.9 | 0.00 | 0.00 | 0.00 | 71 | 1011.6 |
| 20260503013029 | 68 | 0 | 0.0 | 0.9 | 0.00 | 0.00 | 0.00 | 68 | 1011.5 |
| 20260503011533 | 69 | 0 | 0.0 | 0.9 | 0.00 | 0.00 | 0.00 | 67 | 1011.5 |
| 20260503010033 | 69 | 0 | 0.0 | 1.7 | 0.00 | 0.00 | 0.00 | 67 | 1011.6 |
| 20260503004528 | 68 | 0 | 0.0 | 1.7 | 0.00 | 0.00 | 0.00 | 66 | 1011.4 |
| 20260503003028 | 69 | 304 | 0.0 | 2.6 | 0.00 | 0.00 | 0.00 | 68 | 1011.5 |
| 20260503001528 | 68 | 304 | 1.7 | 6.1 | 0.00 | 0.00 | 0.00 | 67 | 1011.4 |
| 20260503000030 | 68 | 308 | 1.7 | 3.5 | 0.00 | 0.00 | 0.00 | 66 | 1011.5 |
| 20260502234535 | 68 | 0 | 0.0 | 5.2 | 0.00 | 0.00 | 0.00 | 66 | 1011.6 |
| 20260502233030 | 68 | 314 | 0.0 | 5.2 | 0.00 | 0.00 | 0.00 | 66 | 1011.6 |
| 20260502231530 | 68 | 299 | 1.7 | 4.3 | 0.00 | 0.00 | 0.00 | 67 | 1011.8 |
| 20260502230028 | 67 | 290 | 2.6 | 6.1 | 0.00 | 0.00 | 0.00 | 67 | 1012.1 |
| 20260502224527 | 67 | 312 | 1.7 | 7.0 | 0.00 | 0.00 | 0.00 | 67 | 1012.2 |
| 20260502223031 | 66 | 288 | 1.7 | 7.0 | 0.00 | 0.00 | 0.00 | 67 | 1012.3 |
| 20260502221529 | 66 | 318 | 1.7 | 7.0 | 0.00 | 0.00 | 0.00 | 69 | 1012.5 |
| 20260502220032 | 65 | 0 | 0.9 | 4.3 | 0.00 | 0.00 | 0.00 | 69 | 1012.8 |
| 20260502214528 | 64 | 0 | 1.7 | 4.3 | 0.00 | 0.00 | 0.00 | 71 | 1013.0 |
| 20260502213035 | 63 | 332 | 0.9 | 7.0 | 0.00 | 0.00 | 0.00 | 72 | 1013.0 |
| 20260502211527 | 62 | 289 | 1.7 | 4.3 | 0.00 | 0.00 | 0.00 | 73 | 1013.2 |
| 20260502210030 | 62 | 321 | 1.7 | 7.0 | 0.00 | 0.00 | 0.00 | 76 | 1013.5 |
| 20260502204530 | 61 | 0 | 0.9 | 4.3 | 0.00 | 0.00 | 0.00 | 75 | 1013.8 |
| 20260502203030 | 60 | 0 | 0.9 | 3.5 | 0.00 | 0.00 | 0.00 | 77 | 1014.0 |
| 20260502201537 | 59 | 0 | 0.0 | 1.7 | 0.00 | 0.00 | 0.00 | 78 | 1014.3 |
| 20260502200029 | 59 | 0 | 0.0 | 3.5 | 0.00 | 0.00 | 0.00 | 79 | 1014.4 |
| 20260502194540 | 58 | 0 | 0.9 | 6.1 | 0.00 | 0.00 | 0.00 | 81 | 1014.6 |
| 20260502193032 | 57 | 309 | 0.0 | 6.1 | 0.00 | 0.00 | 0.00 | 84 | 1014.7 |
| 20260502191537 | 56 | 288 | 1.7 | 3.5 | 0.00 | 0.00 | 0.00 | 84 | 1014.8 |
| 20260502190028 | 55 | 286 | 0.9 | 3.5 | 0.00 | 0.00 | 0.00 | 87 | 1014.7 |
| 20260502184535 | 54 | 319 | 0.9 | 4.3 | 0.00 | 0.00 | 0.00 | 90 | 1014.9 |
| 20260502183028 | 53 | 329 | 0.9 | 4.3 | 0.00 | 0.00 | 0.00 | 91 | 1014.8 |